Voltar ao catálogo

STARLINK-30104

AtivoComunicaçõesVLEO
NORAD 56300·PAYLOAD·🇺🇸 United States

Lançado Apr 19, 2023 de Cape Canaveral Space Force Station

Loading…

Próximas Passagens (próximas 24 horas)

TLE

AtualizadoSource: CelesTrak SupGP

Época: Sep 14, 2026, 21:28 UTC

1 56300C 23056Q   26257.89493056  .00031485  00000+0  11405-2 0  2576
2 56300  43.0028 220.5587 0001267 262.8675 130.5629 15.27560452    18

Acompanhe STARLINK-30104 em tempo real com AllMySat

Download on the App Store